N122CA KOPF-KRIC

Flight info

Callsign N122CA
Flight time 1h 54m
Altitude 39000
Route ALTNN2 DUCEN Q87 VIYAP SUSYQ Q87 LCAPE NOWAE NEAVL DUCXS5
Aircraft E190/M-SDE1E2E3FGHIJ3J4J7P2RWXY/LB1D1G1

Departure

Time 2026-05-03 21:02
Airport Miami-Opa Locka Executive Airport (KOPF)

Arrival

Time 2026-05-03 22:57
Airport Richmond International Airport (KRIC)
Time Latitude Longitude Altitude Speed Heading
2026-05-03 20:15 25.91124 -80.26661 11 ft 0 kts 179°
2026-05-03 20:44 25.91120 -80.26661 11 ft 1 kts 179°
2026-05-03 20:44 25.91104 -80.26660 11 ft 3 kts 179°
2026-05-03 20:44 25.91085 -80.26674 11 ft 4 kts 245°
2026-05-03 20:45 25.91084 -80.26712 11 ft 5 kts 285°
2026-05-03 20:45 25.91112 -80.26749 11 ft 7 kts 334°
2026-05-03 20:45 25.91163 -80.26767 11 ft 8 kts 313°
2026-05-03 20:45 25.91190 -80.26828 11 ft 9 kts 304°
2026-05-03 20:46 25.91222 -80.26897 11 ft 10 kts 272°
2026-05-03 20:46 25.91219 -80.26986 11 ft 12 kts 266°
2026-05-03 20:46 25.91214 -80.27086 11 ft 13 kts 267°
2026-05-03 20:46 25.91210 -80.27198 11 ft 15 kts 268°
2026-05-03 20:47 25.91203 -80.27331 8 ft 18 kts 268°
2026-05-03 20:47 25.91196 -80.27467 8 ft 17 kts 267°
2026-05-03 20:47 25.91189 -80.27607 8 ft 18 kts 266°
2026-05-03 20:47 25.91182 -80.27754 8 ft 18 kts 267°
2026-05-03 20:48 25.91176 -80.27876 8 ft 15 kts 267°
2026-05-03 20:48 25.91170 -80.28003 8 ft 17 kts 267°
2026-05-03 20:48 25.91164 -80.28141 8 ft 18 kts 268°
2026-05-03 20:48 25.91156 -80.28290 8 ft 19 kts 266°
2026-05-03 20:49 25.91148 -80.28449 8 ft 21 kts 268°
2026-05-03 20:49 25.91141 -80.28614 10 ft 21 kts 266°
2026-05-03 20:49 25.91134 -80.28771 11 ft 11 kts 267°
2026-05-03 20:49 25.91152 -80.28829 11 ft 5 kts 328°
2026-05-03 20:50 25.91163 -80.28834 11 ft 0 kts 348°
2026-05-03 21:00 25.91165 -80.28835 11 ft 1 kts 348°
2026-05-03 21:01 25.91188 -80.28838 11 ft 6 kts 357°
2026-05-03 21:01 25.91247 -80.28840 11 ft 7 kts
2026-05-03 21:01 25.91266 -80.28809 11 ft 2 kts 85°
2026-05-03 21:01 25.91268 -80.28773 11 ft 10 kts 86°
2026-05-03 21:02 25.91286 -80.28404 9 ft 96 kts 87°
2026-05-03 21:02 25.91337 -80.27371 111 ft 163 kts 86°
2026-05-03 21:02 25.91450 -80.26055 966 ft 179 kts 82°
2026-05-03 21:02 25.91582 -80.24749 1789 ft 180 kts 82°
2026-05-03 21:03 25.91732 -80.23216 1963 ft 214 kts 82°
2026-05-03 21:03 25.91900 -80.21557 1978 ft 219 kts 82°
2026-05-03 21:03 25.92081 -80.19862 1973 ft 219 kts 82°
2026-05-03 21:03 25.92269 -80.18193 1974 ft 216 kts 82°
2026-05-03 21:04 25.92450 -80.16554 1972 ft 216 kts 82°
2026-05-03 21:04 25.92638 -80.14886 1974 ft 217 kts 82°
2026-05-03 21:04 25.92825 -80.13224 1973 ft 218 kts 82°
2026-05-03 21:04 25.93012 -80.11573 1975 ft 216 kts 82°
2026-05-03 21:05 25.93203 -80.09910 1972 ft 216 kts 82°
2026-05-03 21:05 25.93390 -80.08257 1973 ft 215 kts 82°
2026-05-03 21:05 25.93574 -80.06610 1972 ft 217 kts 82°
2026-05-03 21:05 25.93767 -80.04935 1975 ft 217 kts 82°
2026-05-03 21:06 25.93954 -80.03295 1973 ft 216 kts 82°
2026-05-03 21:06 25.94146 -80.01633 1974 ft 216 kts 82°
2026-05-03 21:06 25.94337 -79.99964 1973 ft 216 kts 82°
2026-05-03 21:06 25.94518 -79.98322 1973 ft 215 kts 82°
2026-05-03 21:07 25.94703 -79.96661 1973 ft 217 kts 82°
2026-05-03 21:07 25.94890 -79.94994 1972 ft 215 kts 82°
2026-05-03 21:07 25.95069 -79.93337 1972 ft 215 kts 82°
2026-05-03 21:07 25.95288 -79.91718 1961 ft 214 kts 68°
2026-05-03 21:08 25.96244 -79.90497 1991 ft 216 kts 25°
2026-05-03 21:08 25.97692 -79.90041 1998 ft 216 kts 12°
2026-05-03 21:08 25.99156 -79.89717 1974 ft 214 kts 12°
2026-05-03 21:08 26.00624 -79.89397 1967 ft 214 kts 12°
2026-05-03 21:09 26.02086 -79.89077 1965 ft 214 kts 12°
2026-05-03 21:09 26.03567 -79.88753 1971 ft 214 kts 12°
2026-05-03 21:09 26.05019 -79.88436 1968 ft 214 kts 12°
2026-05-03 21:09 26.06490 -79.88113 1973 ft 217 kts 12°
2026-05-03 21:10 26.07964 -79.87787 1974 ft 214 kts 12°
2026-05-03 21:10 26.09450 -79.87463 1974 ft 216 kts 12°
2026-05-03 21:10 26.10923 -79.87148 1975 ft 214 kts 12°
2026-05-03 21:10 26.12377 -79.86839 1978 ft 214 kts 12°
2026-05-03 21:11 26.13835 -79.86533 1979 ft 211 kts 12°
2026-05-03 21:11 26.15278 -79.86242 1978 ft 209 kts 12°
2026-05-03 21:11 26.16759 -79.86129 2064 ft 224 kts 354°
2026-05-03 21:11 26.18304 -79.86566 2766 ft 236 kts 335°
2026-05-03 21:12 26.19760 -79.87360 3570 ft 242 kts 335°
2026-05-03 21:12 26.21357 -79.88165 3940 ft 260 kts 335°
2026-05-03 21:12 26.23044 -79.88974 3974 ft 264 kts 336°
2026-05-03 21:12 26.24730 -79.89764 3977 ft 264 kts 336°
2026-05-03 21:13 26.26435 -79.90552 3979 ft 263 kts 336°
2026-05-03 21:13 26.28141 -79.91336 3978 ft 265 kts 336°
2026-05-03 21:13 26.29852 -79.92121 3986 ft 263 kts 337°
2026-05-03 21:13 26.31551 -79.92899 3978 ft 263 kts 337°
2026-05-03 21:14 26.33246 -79.93675 3975 ft 263 kts 337°
2026-05-03 21:14 26.34919 -79.94441 3973 ft 262 kts 337°
2026-05-03 21:14 26.36615 -79.95217 3971 ft 261 kts 337°
2026-05-03 21:14 26.38315 -79.95995 3989 ft 263 kts 337°
2026-05-03 21:15 26.40093 -79.96809 4512 ft 283 kts 336°
2026-05-03 21:15 26.41905 -79.97639 5513 ft 283 kts 335°
2026-05-03 21:15 26.43683 -79.98453 6623 ft 278 kts 334°
2026-05-03 21:15 26.45458 -79.99267 7652 ft 278 kts 334°
2026-05-03 21:16 26.47242 -80.00086 8586 ft 281 kts 333°
2026-05-03 21:16 26.49041 -80.00912 9461 ft 286 kts 333°
2026-05-03 21:16 26.50904 -80.01768 10350 ft 292 kts 333°
2026-05-03 21:16 26.52784 -80.02631 11177 ft 299 kts 333°
2026-05-03 21:17 26.54752 -80.03536 11903 ft 311 kts 333°
2026-05-03 21:17 26.56091 -80.04150 12361 ft 319 kts 333°
2026-05-03 21:17 26.58878 -80.05431 13408 ft 331 kts 333°
2026-05-03 21:17 26.61011 -80.06409 14325 ft 336 kts 333°
2026-05-03 21:18 26.63191 -80.07413 15247 ft 339 kts 333°
2026-05-03 21:18 26.65351 -80.08408 16117 ft 343 kts 333°
2026-05-03 21:18 26.67563 -80.09427 16919 ft 348 kts 332°
2026-05-03 21:18 26.69809 -80.10461 17707 ft 352 kts 332°
2026-05-03 21:19 26.72100 -80.11517 18478 ft 356 kts 332°
2026-05-03 21:19 26.74385 -80.12570 19198 ft 361 kts 331°
2026-05-03 21:19 26.76724 -80.13649 19938 ft 364 kts 331°
2026-05-03 21:19 26.79050 -80.14722 20613 ft 368 kts 331°
2026-05-03 21:20 26.81436 -80.15824 21293 ft 372 kts 330°
2026-05-03 21:20 26.83854 -80.16942 21968 ft 375 kts 330°
2026-05-03 21:20 26.86256 -80.18051 22586 ft 380 kts 330°
2026-05-03 21:20 26.88716 -80.19188 23203 ft 384 kts 330°
2026-05-03 21:21 26.91200 -80.20336 23775 ft 388 kts 330°
2026-05-03 21:21 26.93683 -80.21485 24351 ft 392 kts 330°
2026-05-03 21:21 26.96230 -80.22665 24911 ft 396 kts 330°
2026-05-03 21:21 26.98800 -80.23855 25489 ft 400 kts 330°
2026-05-03 21:22 27.01356 -80.25039 25992 ft 404 kts 330°
2026-05-03 21:22 27.03994 -80.26262 26513 ft 408 kts 330°
2026-05-03 21:22 27.06621 -80.27480 27049 ft 411 kts 330°
2026-05-03 21:22 27.09262 -80.28706 27579 ft 414 kts 330°
2026-05-03 21:23 27.11939 -80.29949 28056 ft 417 kts 330°
2026-05-03 21:23 27.14645 -80.31206 28482 ft 422 kts 329°
2026-05-03 21:23 27.17364 -80.32469 28926 ft 426 kts 329°
2026-05-03 21:23 27.20113 -80.33748 29361 ft 429 kts 329°
2026-05-03 21:24 27.22852 -80.35021 29888 ft 429 kts 329°
2026-05-03 21:24 27.25613 -80.36306 30442 ft 429 kts 328°
2026-05-03 21:24 27.28374 -80.37592 30889 ft 430 kts 328°
2026-05-03 21:24 27.31149 -80.38887 31309 ft 432 kts 328°
2026-05-03 21:25 27.33911 -80.40173 31781 ft 433 kts 327°
2026-05-03 21:25 27.36705 -80.41477 32253 ft 433 kts 327°
2026-05-03 21:25 27.39483 -80.42773 32779 ft 431 kts 326°
2026-05-03 21:25 27.42233 -80.44057 33397 ft 427 kts 326°
2026-05-03 21:26 27.45000 -80.45350 34042 ft 423 kts 325°
2026-05-03 21:26 27.47782 -80.46652 34600 ft 422 kts 325°
2026-05-03 21:26 27.50559 -80.47949 35176 ft 420 kts 325°
2026-05-03 21:26 27.53295 -80.49231 35685 ft 418 kts 324°
2026-05-03 21:27 27.55960 -80.50480 36140 ft 418 kts 324°
2026-05-03 21:27 27.58673 -80.51751 36605 ft 417 kts 324°
2026-05-03 21:27 27.61370 -80.53017 36968 ft 418 kts 324°
2026-05-03 21:27 27.64041 -80.54270 37260 ft 421 kts 324°
2026-05-03 21:28 27.66735 -80.55534 37657 ft 421 kts 324°
2026-05-03 21:28 27.69448 -80.56807 38099 ft 419 kts 324°
2026-05-03 21:28 27.72137 -80.58070 38527 ft 418 kts 324°
2026-05-03 21:28 27.74821 -80.59332 38946 ft 416 kts 324°
2026-05-03 21:29 27.80190 -80.61861 39012 ft 427 kts 324°
2026-05-03 21:29 27.85768 -80.64488 39008 ft 439 kts 324°
2026-05-03 21:30 27.91493 -80.67187 39024 ft 446 kts 324°
2026-05-03 21:30 27.97198 -80.69878 39024 ft 449 kts 324°
2026-05-03 21:31 28.02906 -80.72573 39026 ft 440 kts 323°
2026-05-03 21:31 28.08601 -80.75270 39029 ft 445 kts 323°
2026-05-03 21:32 28.14343 -80.77991 39018 ft 446 kts 323°
2026-05-03 21:32 28.20069 -80.80704 39018 ft 442 kts 324°
2026-05-03 21:33 28.25749 -80.83405 39027 ft 448 kts 323°
2026-05-03 21:33 28.31421 -80.86100 39050 ft 444 kts 323°
2026-05-03 21:34 28.37131 -80.88816 39053 ft 443 kts 323°
2026-05-03 21:34 28.42800 -80.91518 39053 ft 444 kts 323°
2026-05-03 21:35 28.48473 -80.94222 39061 ft 441 kts 323°
2026-05-03 21:35 28.54128 -80.96925 39064 ft 443 kts 322°
2026-05-03 21:36 28.59824 -80.99646 39057 ft 441 kts 322°
2026-05-03 21:36 28.65527 -81.02379 39060 ft 447 kts 322°
2026-05-03 21:37 28.71234 -81.05110 39062 ft 440 kts 322°
2026-05-03 21:37 28.76896 -81.07831 39059 ft 446 kts 322°
2026-05-03 21:38 28.82634 -81.10586 39063 ft 444 kts 323°
2026-05-03 21:38 28.88257 -81.13291 39073 ft 443 kts 322°
2026-05-03 21:39 28.94033 -81.16072 39075 ft 450 kts 322°
2026-05-03 21:39 28.99727 -81.18819 39077 ft 449 kts 322°
2026-05-03 21:40 29.05415 -81.21563 39073 ft 446 kts 322°
2026-05-03 21:40 29.11117 -81.24317 39075 ft 443 kts 322°
2026-05-03 21:41 29.16845 -81.27091 39064 ft 447 kts 322°
2026-05-03 21:41 29.22522 -81.29839 39065 ft 444 kts 322°
2026-05-03 21:42 29.28443 -81.32247 39078 ft 471 kts 334°
2026-05-03 21:42 29.31727 -81.32757 39071 ft 485 kts 344°
2026-05-03 21:42 29.35154 -81.32831 39084 ft 493 kts 345°
2026-05-03 21:43 29.41961 -81.33160 39073 ft 492 kts 344°
2026-05-03 21:43 29.48782 -81.33558 39081 ft 490 kts 343°
2026-05-03 21:44 29.55561 -81.33956 39078 ft 486 kts 343°
2026-05-03 21:44 29.62301 -81.34355 39079 ft 487 kts 343°
2026-05-03 21:45 29.69098 -81.34757 39073 ft 489 kts 343°
2026-05-03 21:45 29.75885 -81.35160 39070 ft 491 kts 343°
2026-05-03 21:46 29.82683 -81.35563 39079 ft 493 kts 343°
2026-05-03 21:46 29.89572 -81.35970 39088 ft 490 kts 343°
2026-05-03 21:47 29.96396 -81.36378 39090 ft 492 kts 343°
2026-05-03 21:47 30.03264 -81.36784 39083 ft 490 kts 343°
2026-05-03 21:48 30.10073 -81.37193 39096 ft 493 kts 343°
2026-05-03 21:48 30.16879 -81.37601 39078 ft 495 kts 343°
2026-05-03 21:49 30.23679 -81.38004 39082 ft 485 kts 343°
2026-05-03 21:49 30.30488 -81.38415 39078 ft 492 kts 344°
2026-05-03 21:50 30.37271 -81.38823 39082 ft 495 kts 344°
2026-05-03 21:50 30.44152 -81.39231 39088 ft 489 kts 343°
2026-05-03 21:51 30.50986 -81.39609 39091 ft 492 kts 344°
2026-05-03 21:51 30.57815 -81.39969 39087 ft 491 kts 344°
2026-05-03 21:52 30.64645 -81.40330 39091 ft 491 kts 344°
2026-05-03 21:52 30.71521 -81.40696 39087 ft 498 kts 344°
2026-05-03 21:53 30.78361 -81.41058 39085 ft 493 kts 344°
2026-05-03 21:53 30.85277 -81.41425 39076 ft 495 kts 344°
2026-05-03 21:54 30.92144 -81.41790 39083 ft 491 kts 344°
2026-05-03 21:54 30.98994 -81.42156 39082 ft 494 kts 344°
2026-05-03 21:55 31.05865 -81.42522 39100 ft 491 kts 344°
2026-05-03 21:55 31.12736 -81.42892 39086 ft 495 kts 344°
2026-05-03 21:56 31.19615 -81.43259 39087 ft 492 kts 344°
2026-05-03 21:56 31.23092 -81.43191 39090 ft 510 kts 354°
2026-05-03 21:56 31.26657 -81.42529 39091 ft 524 kts
2026-05-03 21:57 31.33582 -81.39460 39094 ft 544 kts 21°
2026-05-03 21:57 31.40285 -81.35432 39077 ft 539 kts 16°
2026-05-03 21:58 31.47095 -81.31715 39071 ft 540 kts 16°
2026-05-03 21:58 31.53874 -81.28025 39090 ft 539 kts 16°
2026-05-03 21:59 31.60664 -81.24326 39085 ft 538 kts 15°
2026-05-03 21:59 31.67464 -81.20617 39086 ft 540 kts 16°
2026-05-03 22:00 31.74236 -81.16914 39085 ft 537 kts 15°
2026-05-03 22:00 31.81009 -81.13208 39088 ft 539 kts 16°
2026-05-03 22:01 31.87758 -81.09505 39099 ft 535 kts 15°
2026-05-03 22:01 31.94549 -81.05778 39104 ft 540 kts 16°
2026-05-03 22:02 32.01284 -81.02063 39100 ft 536 kts 16°
2026-05-03 22:02 32.08028 -80.98290 39104 ft 533 kts 15°
2026-05-03 22:03 32.14754 -80.94524 39107 ft 532 kts 15°
2026-05-03 22:03 32.21433 -80.90779 39100 ft 531 kts 16°
2026-05-03 22:04 32.28142 -80.87010 39092 ft 531 kts 15°
2026-05-03 22:04 32.34822 -80.83253 39102 ft 531 kts 16°
2026-05-03 22:05 32.41528 -80.79473 39112 ft 530 kts 15°
2026-05-03 22:05 32.48142 -80.75741 39109 ft 530 kts 16°
2026-05-03 22:06 32.54821 -80.71966 39106 ft 532 kts 16°
2026-05-03 22:06 32.61499 -80.68181 39106 ft 529 kts 15°
2026-05-03 22:07 32.68131 -80.64421 39093 ft 533 kts 16°
2026-05-03 22:07 32.74766 -80.60564 39092 ft 528 kts 17°
2026-05-03 22:08 32.81366 -80.56644 39109 ft 528 kts 17°
2026-05-03 22:08 32.87936 -80.52739 39106 ft 529 kts 17°
2026-05-03 22:09 32.94498 -80.48830 39103 ft 528 kts 17°
2026-05-03 22:10 33.04338 -80.42959 39105 ft 526 kts 17°
2026-05-03 22:10 33.10875 -80.39049 39098 ft 527 kts 17°
2026-05-03 22:11 33.17454 -80.35109 39095 ft 526 kts 17°
2026-05-03 22:11 33.23957 -80.31207 39073 ft 526 kts 18°
2026-05-03 22:12 33.30526 -80.27260 39077 ft 528 kts 18°
2026-05-03 22:12 33.37099 -80.23302 39086 ft 526 kts 18°
2026-05-03 22:13 33.43617 -80.19372 39085 ft 527 kts 18°
2026-05-03 22:13 33.50115 -80.15446 39086 ft 522 kts 17°
2026-05-03 22:14 33.56608 -80.11517 39092 ft 523 kts 18°
2026-05-03 22:14 33.63084 -80.07591 39100 ft 522 kts 18°
2026-05-03 22:15 33.69624 -80.03622 39100 ft 527 kts 18°
2026-05-03 22:15 33.76125 -79.99668 39098 ft 522 kts 18°
2026-05-03 22:16 33.82578 -79.95739 39102 ft 522 kts 18°
2026-05-03 22:16 33.89051 -79.91789 39103 ft 522 kts 18°
2026-05-03 22:17 33.95547 -79.87819 39100 ft 522 kts 18°
2026-05-03 22:17 34.01985 -79.83878 39107 ft 523 kts 18°
2026-05-03 22:18 34.08466 -79.79903 39106 ft 523 kts 18°
2026-05-03 22:18 34.14906 -79.75948 39089 ft 522 kts 18°
2026-05-03 22:19 34.21360 -79.71976 39092 ft 520 kts 18°
2026-05-03 22:19 34.27781 -79.68018 39093 ft 517 kts 18°
2026-05-03 22:20 34.34222 -79.64040 39098 ft 519 kts 18°
2026-05-03 22:20 34.40596 -79.60098 39088 ft 515 kts 18°
2026-05-03 22:21 34.47029 -79.56113 39090 ft 520 kts 18°
2026-05-03 22:21 34.53446 -79.52129 39090 ft 520 kts 18°
2026-05-03 22:22 34.59770 -79.47963 39090 ft 521 kts 20°
2026-05-03 22:22 34.66091 -79.43696 39086 ft 519 kts 20°
2026-05-03 22:23 34.72422 -79.39420 39087 ft 519 kts 20°
2026-05-03 22:23 34.78746 -79.35143 39092 ft 520 kts 20°
2026-05-03 22:24 34.85069 -79.30859 39077 ft 523 kts 21°
2026-05-03 22:24 34.91396 -79.26562 39066 ft 523 kts 21°
2026-05-03 22:25 34.97727 -79.22257 39069 ft 523 kts 21°
2026-05-03 22:25 35.04046 -79.17952 39071 ft 523 kts 21°
2026-05-03 22:26 35.10374 -79.13632 39063 ft 519 kts 21°
2026-05-03 22:26 35.16659 -79.09336 39060 ft 519 kts 21°
2026-05-03 22:27 35.22967 -79.05012 39056 ft 516 kts 21°
2026-05-03 22:27 35.29223 -79.00722 39067 ft 517 kts 21°
2026-05-03 22:28 35.35457 -78.96435 39071 ft 516 kts 20°
2026-05-03 22:28 35.41710 -78.92128 39073 ft 514 kts 20°
2026-05-03 22:29 35.47976 -78.87807 39083 ft 517 kts 21°
2026-05-03 22:29 35.54188 -78.83514 39080 ft 514 kts 20°
2026-05-03 22:30 35.60386 -78.79227 39075 ft 513 kts 20°
2026-05-03 22:30 35.66582 -78.74930 39077 ft 514 kts 21°
2026-05-03 22:31 35.72801 -78.70611 39079 ft 508 kts 20°
2026-05-03 22:31 35.78840 -78.66406 39094 ft 494 kts 20°
2026-05-03 22:31 35.81784 -78.64351 38812 ft 481 kts 20°
2026-05-03 22:32 35.84678 -78.62334 38207 ft 477 kts 20°
2026-05-03 22:32 35.87546 -78.60332 37415 ft 476 kts 20°
2026-05-03 22:32 35.90413 -78.58329 36546 ft 477 kts 20°
2026-05-03 22:32 35.93285 -78.56319 35763 ft 477 kts 20°
2026-05-03 22:33 35.96173 -78.54298 35026 ft 476 kts 20°
2026-05-03 22:33 35.99009 -78.52311 34288 ft 474 kts 21°
2026-05-03 22:33 36.01883 -78.50293 33396 ft 471 kts 21°
2026-05-03 22:33 36.04711 -78.48309 32534 ft 467 kts 21°
2026-05-03 22:34 36.07507 -78.46344 31690 ft 463 kts 21°
2026-05-03 22:34 36.10289 -78.44387 30860 ft 457 kts 20°
2026-05-03 22:34 36.13028 -78.42461 29758 ft 458 kts 21°
2026-05-03 22:34 36.15786 -78.40520 28586 ft 458 kts 21°
2026-05-03 22:35 36.18488 -78.38614 28859 ft 455 kts 21°
2026-05-03 22:35 36.24014 -78.34716 28829 ft 446 kts 21°
2026-05-03 22:36 36.29427 -78.30888 28604 ft 438 kts 21°
2026-05-03 22:36 36.32052 -78.29031 27822 ft 432 kts 21°
2026-05-03 22:36 36.34669 -78.27178 26784 ft 432 kts 21°
2026-05-03 22:36 36.37246 -78.25352 25788 ft 431 kts 21°
2026-05-03 22:37 36.39769 -78.23373 24886 ft 430 kts 25°
2026-05-03 22:37 36.42273 -78.21336 24299 ft 430 kts 25°
2026-05-03 22:37 36.44754 -78.19318 23862 ft 424 kts 25°
2026-05-03 22:37 36.47192 -78.17337 23419 ft 418 kts 25°
2026-05-03 22:38 36.49617 -78.15368 23006 ft 412 kts 25°
2026-05-03 22:38 36.52007 -78.13424 22599 ft 408 kts 25°
2026-05-03 22:38 36.54343 -78.11524 22192 ft 405 kts 26°
2026-05-03 22:38 36.56718 -78.09590 21773 ft 402 kts 26°
2026-05-03 22:39 36.59016 -78.07718 21369 ft 399 kts 26°
2026-05-03 22:39 36.61319 -78.05839 20952 ft 394 kts 26°
2026-05-03 22:39 36.63601 -78.03976 20530 ft 390 kts 26°
2026-05-03 22:39 36.65870 -78.02124 20122 ft 388 kts 26°
2026-05-03 22:40 36.68110 -78.00294 19712 ft 384 kts 26°
2026-05-03 22:40 36.70321 -77.98485 19307 ft 380 kts 26°
2026-05-03 22:40 36.72520 -77.96686 18910 ft 377 kts 26°
2026-05-03 22:40 36.74690 -77.94908 18559 ft 374 kts 26°
2026-05-03 22:41 36.76875 -77.93117 18198 ft 371 kts 27°
2026-05-03 22:41 36.79009 -77.91368 17837 ft 369 kts 27°
2026-05-03 22:41 36.81142 -77.89618 17477 ft 367 kts 27°
2026-05-03 22:41 36.83268 -77.87872 17148 ft 367 kts 27°
2026-05-03 22:42 36.85392 -77.86126 16818 ft 365 kts 27°
2026-05-03 22:42 36.87508 -77.84386 16449 ft 364 kts 27°
2026-05-03 22:42 36.89607 -77.82659 16103 ft 361 kts 27°
2026-05-03 22:42 36.91693 -77.80941 15745 ft 359 kts 27°
2026-05-03 22:43 36.93774 -77.79227 15383 ft 357 kts 27°
2026-05-03 22:43 36.95835 -77.77528 15105 ft 354 kts 27°
2026-05-03 22:43 36.97858 -77.75863 14987 ft 339 kts 26°
2026-05-03 22:43 36.99807 -77.74393 14925 ft 314 kts 24°
2026-05-03 22:44 37.01617 -77.73039 14925 ft 293 kts 23°
2026-05-03 22:44 37.03310 -77.71774 14899 ft 275 kts 22°
2026-05-03 22:44 37.05020 -77.70508 14665 ft 311 kts 23°
2026-05-03 22:44 37.07021 -77.69017 14317 ft 347 kts 24°
2026-05-03 22:45 37.09087 -77.67464 13899 ft 353 kts 25°
2026-05-03 22:45 37.11191 -77.65883 13423 ft 349 kts 25°
2026-05-03 22:45 37.13065 -77.63956 12940 ft 357 kts 47°
2026-05-03 22:45 37.14252 -77.61225 12439 ft 359 kts 62°
2026-05-03 22:46 37.15263 -77.58388 11917 ft 355 kts 62°
2026-05-03 22:46 37.16260 -77.55583 11424 ft 348 kts 62°
2026-05-03 22:46 37.17158 -77.52844 10924 ft 342 kts 72°
2026-05-03 22:46 37.17312 -77.49872 10472 ft 336 kts 89°
2026-05-03 22:47 37.17239 -77.46987 10009 ft 328 kts 89°
2026-05-03 22:47 37.17167 -77.44170 9543 ft 322 kts 89°
2026-05-03 22:47 37.17097 -77.41406 9081 ft 316 kts 89°
2026-05-03 22:47 37.17030 -77.38685 8625 ft 310 kts 89°
2026-05-03 22:48 37.16969 -77.36047 8166 ft 305 kts 89°
2026-05-03 22:48 37.16907 -77.33423 7705 ft 300 kts 90°
2026-05-03 22:48 37.16853 -77.30835 7276 ft 295 kts 90°
2026-05-03 22:48 37.16806 -77.28257 6808 ft 291 kts 90°
2026-05-03 22:49 37.16883 -77.25792 6354 ft 285 kts 74°
2026-05-03 22:49 37.17839 -77.23717 5952 ft 269 kts 36°
2026-05-03 22:49 37.19435 -77.22759 6176 ft 255 kts 17°
2026-05-03 22:49 37.21097 -77.21889 7224 ft 262 kts 21°
2026-05-03 22:50 37.22625 -77.20945 7772 ft 244 kts 22°
2026-05-03 22:50 37.24217 -77.19885 6083 ft 285 kts 26°
2026-05-03 22:50 37.25914 -77.18687 5388 ft 277 kts 27°
2026-05-03 22:50 37.27562 -77.17503 4752 ft 270 kts 27°
2026-05-03 22:51 37.29172 -77.16388 4372 ft 252 kts 17°
2026-05-03 22:51 37.30763 -77.16283 4330 ft 215 kts 339°
2026-05-03 22:51 37.32023 -77.16997 4379 ft 185 kts 330°
2026-05-03 22:51 37.33123 -77.17744 4187 ft 175 kts 328°
2026-05-03 22:52 37.34167 -77.18501 3865 ft 176 kts 327°
2026-05-03 22:52 37.35226 -77.19296 3508 ft 179 kts 327°
2026-05-03 22:52 37.36289 -77.20113 3152 ft 180 kts 326°
2026-05-03 22:52 37.37355 -77.20943 2889 ft 176 kts 326°
2026-05-03 22:53 37.38347 -77.21735 2765 ft 165 kts 325°
2026-05-03 22:53 37.39301 -77.22504 2533 ft 160 kts 326°
2026-05-03 22:53 37.40229 -77.23247 2314 ft 156 kts 326°
2026-05-03 22:53 37.41146 -77.23978 2111 ft 156 kts 326°
2026-05-03 22:54 37.42054 -77.24701 1912 ft 156 kts 326°
2026-05-03 22:54 37.42975 -77.25433 1703 ft 156 kts 326°
2026-05-03 22:54 37.43888 -77.26160 1520 ft 153 kts 326°
2026-05-03 22:54 37.44758 -77.26852 1316 ft 144 kts 326°
2026-05-03 22:55 37.45555 -77.27486 1115 ft 125 kts 325°
2026-05-03 22:55 37.46241 -77.28032 927 ft 109 kts 323°
2026-05-03 22:55 37.46864 -77.28530 799 ft 105 kts 324°
2026-05-03 22:55 37.47498 -77.29035 669 ft 107 kts 323°
2026-05-03 22:56 37.48141 -77.29549 530 ft 110 kts 324°
2026-05-03 22:56 37.48786 -77.30063 389 ft 109 kts 322°
2026-05-03 22:56 37.49432 -77.30576 248 ft 108 kts 324°
2026-05-03 22:56 37.50063 -77.31068 161 ft 100 kts 324°
2026-05-03 22:57 37.50500 -77.31427 162 ft 49 kts 327°
2026-05-03 22:57 37.50673 -77.31566 162 ft 9 kts 327°
2026-05-03 22:57 37.50706 -77.31593 162 ft 19 kts 326°
2026-05-03 22:57 37.50812 -77.31728 162 ft 22 kts 306°
2026-05-03 22:58 37.50884 -77.31902 163 ft 22 kts 292°
2026-05-03 22:58 37.50873 -77.32020 163 ft 14 kts 181°
2026-05-03 22:58 37.50776 -77.31954 162 ft 16 kts 148°
2026-05-03 22:58 37.50673 -77.31872 162 ft 18 kts 148°
2026-05-03 22:59 37.50561 -77.31781 162 ft 20 kts 148°
2026-05-03 22:59 37.50438 -77.31683 162 ft 21 kts 147°
2026-05-03 22:59 37.50313 -77.31583 162 ft 20 kts 147°
2026-05-03 22:59 37.50227 -77.31513 162 ft 11 kts 147°
2026-05-03 23:00 37.50164 -77.31544 162 ft 11 kts 237°
2026-05-03 23:00 37.50117 -77.31638 162 ft 13 kts 238°
2026-05-03 23:00 37.50062 -77.31747 162 ft 15 kts 239°
2026-05-03 23:00 37.49996 -77.31877 159 ft 19 kts 237°
2026-05-03 23:01 37.49922 -77.32022 159 ft 20 kts 237°
2026-05-03 23:01 37.49842 -77.32180 159 ft 22 kts 238°
2026-05-03 23:01 37.49756 -77.32349 159 ft 23 kts 238°
2026-05-03 23:01 37.49675 -77.32509 159 ft 11 kts 237°
2026-05-03 23:02 37.49681 -77.32601 159 ft 12 kts 311°
2026-05-03 23:02 37.49740 -77.32689 159 ft 13 kts 310°
2026-05-03 23:02 37.49803 -77.32782 161 ft 13 kts 310°
2026-05-03 23:02 37.49866 -77.32876 162 ft 14 kts 310°
2026-05-03 23:03 37.49906 -77.32996 162 ft 15 kts 279°
2026-05-03 23:03 37.49930 -77.33131 162 ft 12 kts 288°
2026-05-03 23:03 37.49997 -77.33170 162 ft 12 kts 13°
2026-05-03 23:03 37.50052 -77.33228 162 ft 11 kts 292°
2026-05-03 23:04 37.50061 -77.33315 162 ft 9 kts 208°
2026-05-03 23:04 37.49993 -77.33340 162 ft 10 kts 201°
2026-05-03 23:04 37.49923 -77.33378 163 ft 11 kts 203°
2026-05-03 23:04 37.49865 -77.33409 164 ft 0 kts 204°
2026-05-03 23:05 37.49862 -77.33411 164 ft 0 kts 205°
2026-05-03 23:05 37.49853 -77.33416 164 ft 2 kts 206°
2026-05-03 23:05 37.49834 -77.33435 164 ft 3 kts 227°
2026-05-03 23:05 37.49813 -77.33458 165 ft 4 kts 212°
2026-05-03 23:06 37.49788 -77.33477 166 ft 4 kts 211°
2026-05-03 23:06 37.49773 -77.33491 165 ft 1 kts 242°
2026-05-03 23:06 37.49775 -77.33506 165 ft 1 kts 284°
2026-05-03 23:06 37.49775 -77.33508 165 ft 0 kts 284°